Weather in Drabiv

Ukraine / Cherkassi District     49°57′20″N   32°07′55″E
temp.,
°C
wind,
m/s
gust,
m/s
humid.,
%
clouds,
%
prec.,
mm/h
press.,
hPa
HPBL,
m
10 may, mon
mon1000:00+5nnw22655 0.0 102611
03:00+4n22680 0.0 102710
06:00+4nne22723 0.0 102712
09:00+11n23555 0.0 1027394
12:00+14n34433 0.0 10271527
15:00+15n45435 0.0 10251702
18:00+14nne46565 0.0 10241683
21:00+9n457429 0.0 102458
11 may, tue
tue1100:00+7n41074100 0.0 1023184
03:00+9n51364100 0.0 1022403
06:00+9n61365100 0.0 1021398
09:00+10nne511747 0.0 1020471
12:00+17nne796722 0.0 1019853
15:00+19ne71063100 0.0 10171539
18:00+14e61089100 0.9 1018531
21:00+11ene410902 0.9 1019492
12 may, wed
wed1200:00+7ne411930 0.0 1019344
03:00+7ene61288100 0.0 1018738
06:00+8ene61285100 0.0 1018773
09:00+9ene51084100 0.1 1018964
12:00+12ene7970100 0.6 10161429
15:00+12ene6771100 1.1 10151268
18:00+12e347453 0.4 1014697
21:00+8ene338755 0.7 101324
13 may, thu
thu1300:00+6se2292100 0.0 101328
03:00+6se3393100 0.0 101352
06:00+6se3693100 0.0 1013132
09:00+12se577413 0.0 1013587
12:00+15sse5659100 0.0 10131142
15:00+17se4766100 0.0 10121077
18:00+18ese61070100 0.2 10101143
21:00+13e4119282 0.9 1010224
14 may, fri
fri1400:00+14ese5149081 0.6 1008350
03:00+12se499579 0.8 1008178
06:00+12sse3696100 0.1 1008125
09:00+16ssw34775 0.1 1008484
12:00+20ssw45555 0.0 1009945
15:00+22ssw355447 0.0 10081568
18:00+20ssw247198 1.4 1009335
21:00+14ssw3695100 4.9 1009119